[[{"header":{"parameterUnit":"m.s-1","parameterCategory":1,"la1":30.2991,"la2":30.254,"lo1":-89.0895,"lo2":-89.0444,"dy":0.0017,"dx":0.0017,"nx":28,"ny":28,"refTime":"2026-02-10T03:00:00:Z","depth":0,"parameterNumber":2,"parameterNumberName":"U-component_of_WINDS"},"data":[0,0,0,0,0,0,0,0,0,0,0,0,0,0,0,0,0,0,0,0,0,0,0,0,0,0,0,0,0,0,0,0,0,0,0,0,0,0,0,0,0,0,0,0,0,0,0,0,0,0,0,0,0,0,0,0,0,0,1.2629,1.263,0,1.2787,1.2789,1.2791,1.283,1.2828,1.2827,1.2826,1.2993,1.2998,1.3004,0,0,0,0,0,0,0,0,0,0,0,0,0,1.2363,1.2368,1.2629,1.2631,1.2633,1.2787,1.2789,1.2791,1.283,1.2828,1.2827,1.2826,1.2991,1.2998,1.3004,0,0,0,0,0,0,0,0,0,0,0,0,0,1.2496,1.2369,1.2628,1.267,1.2675,1.2787,1.2789,1.2792,1.283,1.2828,1.2827,1.2825,1.2989,1.2997,1.3005,1.3087,0,0,1.303,1.3033,0,0,0,0,0,0,0,0,1.2488,1.2506,1.2662,1.2667,1.2674,1.2787,1.2757,1.2891,1.283,1.2771,1.2826,1.2825,1.2926,1.2939,1.2973,1.3095,1.3102,1.3031,1.3036,1.3039,1.3041,0,0,0,0,0,0,0,1.2479,1.2499,1.2692,1.2664,1.2671,1.2683,1.27,1.2782,1.2856,1.2776,1.278,1.2798,1.2929,1.2965,1.2977,1.3104,1.303,1.3038,1.3043,1.3046,1.3303,1.3305,0,0,0,0,0,0,1.2462,1.2491,1.2686,1.2696,1.2575,1.2689,1.2708,1.2752,1.2855,1.2869,1.2799,1.2799,1.2952,1.2967,1.2983,1.3086,1.3039,1.3047,1.3051,1.3301,1.3303,1.3305,0,0,0,0,0,0,1.2456,1.2479,1.268,1.2595,1.2621,1.2695,1.2745,1.2756,1.2792,1.2872,1.2886,1.2822,1.2951,1.2971,1.3061,1.3092,1.305,1.3058,1.3299,1.3302,1.3304,1.3293,0,0,0,0,0,0,1.2448,1.2477,1.2507,1.2595,1.2625,1.2754,1.2746,1.276,1.2805,1.2807,1.2897,1.291,1.2951,1.3048,1.3069,1.3103,1.3064,1.3296,1.33,1.3303,1.3291,1.3295,1.3298,0,0,0,0,0,1.2439,1.2498,1.2509,1.2532,1.2665,1.2756,1.2773,1.2818,1.2808,1.284,1.2892,1.2907,1.3085,1.3057,1.3081,1.3117,1.3294,1.3299,1.3303,1.3289,1.3294,1.3298,0,0,0,0,0,0,1.2414,1.2511,1.2523,1.2613,1.2675,1.2762,1.2804,1.2822,1.289,1.2889,1.2943,1.2963,1.3049,1.3092,1.3059,1.3203,1.319,1.3199,1.3171,1.3177,1.318,1.3168,1.3071,0,0,0,0,0,1.2419,1.2483,1.2564,1.2636,1.2666,1.273,1.2771,1.28,1.2867,1.2895,1.2953,1.3019,1.309,1.3136,1.3206,1.3297,1.3318,1.3334,1.3338,1.3341,1.3348,1.3401,1.3409,1.332,1.332,1.332,0,0,1.243,1.249,1.2528,1.2632,1.2684,1.2751,1.2752,1.2822,1.2872,1.2906,1.2993,1.3038,1.3116,1.3207,1.325,1.3246,1.3378,1.3346,1.3348,1.3354,1.3406,1.3415,1.3422,1.3323,1.3322,1.3322,0,0,1.2484,1.2535,1.2601,1.2653,1.2731,1.2773,1.2788,1.2873,1.2903,1.2992,1.3019,1.308,1.3201,1.3255,1.3299,1.3374,1.3391,1.3395,1.3416,1.3467,1.3474,1.348,1.3508,1.3517,1.3402,1.3402,1.3402,0,1.2488,1.2587,1.2632,1.2701,1.2747,1.2779,1.2847,1.2896,1.2993,1.3025,1.3018,1.3171,1.3226,1.333,1.3348,1.3382,1.3403,1.3385,1.3469,1.3476,1.3482,1.3509,1.3519,1.3402,1.3402,1.3402,1.3402,0,1.2589,1.2658,1.2701,1.2794,1.2844,1.2912,1.2969,1.3015,1.304,1.3083,1.3173,1.324,1.3324,1.3351,1.3376,1.3459,1.3454,1.3458,1.3446,1.349,1.3516,1.3527,1.3402,1.3402,1.3402,1.3402,0,0,1.2632,1.2748,1.2763,1.2806,1.2895,1.295,1.302,1.31,1.3139,1.3206,1.3267,1.3368,1.3372,1.3422,1.3454,1.3498,1.3554,1.3496,1.3499,1.3505,1.3651,1.3647,1.3659,1.3566,1.3568,1.357,1.3644,0,1.2697,1.2821,1.2864,1.2968,1.3032,1.3064,1.3126,1.3188,1.323,1.3292,1.3339,1.3411,1.341,1.344,1.3485,1.3537,1.3584,1.3532,1.3624,1.3627,1.3604,1.3672,1.3669,1.3736,1.3655,1.3656,1.3658,0,1.2789,1.2856,1.2965,1.3047,1.3076,1.313,1.3208,1.3266,1.3338,1.3366,1.3421,1.3449,1.3525,1.3509,1.3615,1.3579,1.3619,1.3651,1.3654,1.3665,1.3645,1.3685,1.3759,1.3769,1.3674,1.3673,1.3672,0,1.281,1.2927,1.3008,1.3043,1.314,1.3178,1.322,1.329,1.3336,1.3405,1.3436,1.3513,1.3555,1.3615,1.3664,1.3647,1.3766,1.3753,1.3792,1.3791,1.3816,1.3814,1.3897,1.3841,1.3841,1.3841,1.384,0,1.2878,1.2944,1.3019,1.3068,1.3144,1.3193,1.3267,1.3311,1.3373,1.3433,1.3466,1.3522,1.3584,1.3648,1.3688,1.377,1.3789,1.3814,1.3824,1.3811,1.3808,1.3839,1.3836,1.3843,1.3843,1.3842,1.3842,0,1.2914,1.2966,1.3057,1.3141,1.3164,1.3216,1.3288,1.3339,1.3382,1.3458,1.3479,1.3547,1.3625,1.368,1.378,1.3807,1.3895,1.3905,1.3871,1.3876,1.3911,1.3907,1.4018,1.4036,1.3967,1.3967,1.3968,0,1.2955,1.3006,1.3095,1.3137,1.3179,1.3247,1.3294,1.3345,1.3393,1.3478,1.3519,1.3598,1.3665,1.3787,1.3847,1.3924,1.3936,1.397,1.3948,1.3934,1.3937,1.3934,1.394,1.3973,1.3973,1.3974,1.3974,0,1.3021,1.3044,1.311,1.3185,1.324,1.3302,1.3364,1.3397,1.346,1.3512,1.3591,1.3643,1.3745,1.3824,1.3907,1.3952,1.3974,1.398,1.3993,1.3981,1.396,1.3972,1.388,1.3978,1.3977,1.3977,1.3977,1.3977,1.3061,1.3108,1.3178,1.3251,1.3303,1.3361,1.3412,1.3462,1.3528,1.3614,1.3641,1.3723,1.3795,1.3908,1.3955,1.4021,1.4019,1.4038,1.4043,1.4047,1.4047,1.3949,1.4036,1.4036,1.4036,1.4036,1.4036,0,1.3129,1.3176,1.3242,1.3328,1.3385,1.3399,1.347,1.3517,1.3588,1.3653,1.3717,1.3809,1.3886,1.3951,1.4031,1.4072,1.4084,1.4091,1.4089,1.4099,1.4043,1.4024,1.408,1.408,1.408,1.408,1.408,1.408,1.3171,1.3252,1.3284,1.3392,1.3439,1.3518,1.3557,1.3611,1.3663,1.3763,1.3826,1.3868,1.3934,1.4019,1.4091,1.4108,1.4137,1.4141,1.4161,1.4108,1.4103,1.4098,1.408,1.4147,1.4147,1.4212,1.4212,1.4213]},{"header":{"parameterUnit":"m.s-1","parameterCategory":1,"la1":30.2991,"la2":30.254,"lo1":-89.0895,"lo2":-89.0444,"dy":0.0017,"dx":0.0017,"nx":28,"ny":28,"refTime":"2026-02-10T03:00:00:Z","depth":0,"parameterNumber":3,"parameterNumberName":"V-component_of_WINDS"},"data":[0,0,0,0,0,0,0,0,0,0,0,0,0,0,0,0,0,0,0,0,0,0,0,0,0,0,0,0,0,0,0,0,0,0,0,0,0,0,0,0,0,0,0,0,0,0,0,0,0,0,0,0,0,0,0,0,0,0,1.6118,1.6119,0,1.6156,1.6157,1.6157,1.6151,1.6151,1.615,1.6149,1.6187,1.6189,1.619,0,0,0,0,0,0,0,0,0,0,0,0,0,1.6041,1.6042,1.6118,1.6119,1.6119,1.6156,1.6157,1.6157,1.6151,1.6151,1.615,1.6149,1.6186,1.6188,1.619,0,0,0,0,0,0,0,0,0,0,0,0,0,1.6076,1.6043,1.6118,1.6121,1.6121,1.6156,1.6157,1.6157,1.6152,1.6151,1.615,1.6149,1.6186,1.6188,1.6191,1.6224,0,0,1.6198,1.6199,0,0,0,0,0,0,0,0,1.6074,1.6079,1.612,1.6121,1.6121,1.6148,1.6143,1.618,1.6152,1.614,1.6149,1.6148,1.6175,1.6178,1.6187,1.6226,1.6228,1.6198,1.62,1.6201,1.6201,0,0,0,0,0,0,0,1.6072,1.6077,1.6133,1.612,1.6121,1.612,1.6124,1.615,1.6162,1.6141,1.6141,1.6145,1.6175,1.6185,1.6188,1.6228,1.6198,1.62,1.6202,1.6203,1.6299,1.63,0,0,0,0,0,0,1.6068,1.6075,1.6132,1.6134,1.6095,1.6122,1.6127,1.614,1.6162,1.6164,1.6146,1.6145,1.6181,1.6185,1.6189,1.6232,1.6201,1.6203,1.6204,1.6298,1.6299,1.63,0,0,0,0,0,0,1.6067,1.6074,1.613,1.6105,1.6112,1.6125,1.614,1.6142,1.6152,1.6166,1.6168,1.6154,1.6181,1.6186,1.6216,1.6233,1.6204,1.6206,1.6297,1.6298,1.63,1.6316,0,0,0,0,0,0,1.6065,1.6073,1.6086,1.6105,1.6113,1.6157,1.6141,1.6143,1.6156,1.6155,1.6174,1.6176,1.618,1.6213,1.6219,1.6236,1.6208,1.6295,1.6297,1.6299,1.6314,1.6318,1.6322,0,0,0,0,0,1.6062,1.6088,1.6087,1.6094,1.613,1.6158,1.6162,1.6167,1.6157,1.6171,1.618,1.6175,1.623,1.6216,1.6222,1.6241,1.6294,1.6297,1.6299,1.6313,1.6318,1.6322,0,0,0,0,0,0,1.607,1.6091,1.6089,1.6123,1.6139,1.6157,1.6174,1.6172,1.6191,1.6189,1.6193,1.6198,1.6229,1.6237,1.6221,1.6275,1.6261,1.6265,1.6269,1.6273,1.6277,1.6275,1.621,0,0,0,0,0,1.6076,1.6097,1.6114,1.6142,1.615,1.6161,1.6173,1.6175,1.6192,1.6198,1.621,1.6226,1.6247,1.626,1.628,1.6315,1.632,1.6331,1.6335,1.6338,1.6342,1.6362,1.6368,1.6309,1.6309,1.6309,0,0,1.6088,1.6102,1.6115,1.6144,1.6157,1.6179,1.6166,1.619,1.6207,1.6202,1.6232,1.6241,1.6259,1.6292,1.6308,1.6301,1.6359,1.6341,1.6343,1.6345,1.6365,1.6371,1.6376,1.6311,1.631,1.631,0,0,1.6122,1.6134,1.616,1.6173,1.6193,1.62,1.6206,1.6225,1.6231,1.6261,1.6258,1.6278,1.6313,1.6327,1.6339,1.6379,1.6376,1.6385,1.6405,1.6425,1.643,1.6434,1.645,1.6455,1.6389,1.6389,1.6389,0,1.6134,1.6168,1.6173,1.6197,1.6211,1.6208,1.6235,1.6247,1.6272,1.6281,1.6273,1.6319,1.6331,1.6368,1.6378,1.6387,1.6395,1.6383,1.6429,1.6433,1.6437,1.6452,1.6458,1.639,1.639,1.639,1.639,0,1.6183,1.6206,1.6225,1.625,1.6265,1.629,1.6299,1.6314,1.6316,1.6324,1.6355,1.6369,1.6393,1.6402,1.6403,1.644,1.6435,1.6428,1.6413,1.6444,1.6458,1.6464,1.6391,1.6391,1.6391,1.639,0,0,1.6223,1.6251,1.6258,1.627,1.6292,1.6311,1.6336,1.636,1.6373,1.639,1.6413,1.6443,1.6438,1.6451,1.6453,1.6471,1.6504,1.6462,1.6462,1.647,1.6547,1.6553,1.6559,1.6501,1.6503,1.6503,1.6546,0,1.6259,1.6305,1.6311,1.6351,1.6374,1.6372,1.6395,1.6411,1.6419,1.6439,1.6448,1.6471,1.646,1.6469,1.6486,1.6496,1.6519,1.6493,1.6523,1.6524,1.6519,1.6566,1.6573,1.6612,1.6551,1.6552,1.6553,0,1.6308,1.6329,1.6372,1.6392,1.6402,1.6422,1.6445,1.6464,1.6483,1.6488,1.6503,1.6504,1.653,1.6515,1.6552,1.6534,1.6546,1.6553,1.6555,1.6558,1.6541,1.6573,1.6624,1.663,1.6561,1.656,1.656,0,1.6335,1.6372,1.6404,1.6414,1.6438,1.6453,1.6463,1.6481,1.6496,1.6516,1.6525,1.6548,1.656,1.6578,1.6585,1.6572,1.6622,1.6606,1.6627,1.6627,1.6638,1.6638,1.6694,1.6645,1.6645,1.6645,1.6644,0,1.6376,1.6403,1.6416,1.6435,1.6466,1.6472,1.6502,1.6512,1.6528,1.6549,1.6549,1.6569,1.6576,1.6598,1.6603,1.6634,1.6639,1.6644,1.6646,1.6645,1.6645,1.6654,1.6652,1.6646,1.6646,1.6645,1.6645,0,1.641,1.642,1.6455,1.6476,1.6481,1.6503,1.6521,1.654,1.6548,1.6575,1.6582,1.6595,1.662,1.6629,1.6659,1.6663,1.6699,1.6698,1.6693,1.6694,1.6715,1.6713,1.678,1.6789,1.6733,1.6733,1.6734,0,1.6437,1.6457,1.6481,1.6496,1.6507,1.6531,1.6546,1.6553,1.6569,1.6593,1.6609,1.6634,1.6655,1.6695,1.6708,1.6731,1.6731,1.6752,1.6734,1.6733,1.6733,1.6732,1.6734,1.6756,1.6757,1.6757,1.6757,0,1.6482,1.6487,1.6509,1.6533,1.6552,1.6571,1.659,1.6602,1.6612,1.663,1.6656,1.6672,1.6704,1.6729,1.6754,1.6765,1.6763,1.6763,1.677,1.677,1.6767,1.677,1.6704,1.6762,1.6761,1.6761,1.6761,1.6761,1.6514,1.6533,1.6554,1.6579,1.6594,1.6612,1.6631,1.6642,1.6665,1.6692,1.6695,1.6723,1.6742,1.6775,1.6787,1.681,1.6804,1.6813,1.6815,1.6817,1.682,1.6763,1.6814,1.6814,1.6814,1.6814,1.6814,0,1.6561,1.6574,1.6597,1.6624,1.6645,1.6642,1.6663,1.668,1.6705,1.6723,1.6744,1.6775,1.68,1.6815,1.684,1.6855,1.6856,1.6862,1.6861,1.6864,1.6823,1.6816,1.6862,1.6862,1.6862,1.6862,1.6862,1.6862,1.6588,1.6621,1.6628,1.6668,1.6681,1.671,1.6722,1.6739,1.6754,1.6789,1.681,1.682,1.6837,1.6863,1.6886,1.689,1.69,1.6907,1.691,1.6872,1.6867,1.6862,1.6855,1.6909,1.6909,1.695,1.695,1.695]}]]